Vertical_Velocity
-3 5 -0 -1 -2 -1 -4 3 -2 -0 -7 -3 1 -1 0 1 0 -1 0 1 -0 -1 -0 -0 0 -1 -1 -0 2 0 1 0 -1 -7 -3 -2 -2 -1 -1 -5 -4 -2 -3 -12
1 -1 0 1 1 -4 -12 5 1 4 1 -1 -0 0 1 1 0 -0 0 -0 -0 -0 0 -3 -1 0 -0 -0 -1 -1 -0 -3 -2 -10 -10 1 0 -0 -1 -1 -1 -2 -4 -11
-6 -1 -1 -2 2 2 -1 4 -6 3 0 -1 -2 -1 -0 -0 -1 -0 0 -0 -1 -0 0 -0 -1 0 1 -1 0 -0 -1 -0 -1 -8 -7 -3 1 1 0 -3 0 -3 -4 -3
-3 1 -2 -2 3 -0 3 2 -1 0 -3 -3 -0 -0 -2 0 -0 0 1 -1 0 -1 -0 0 -0 -0 1 2 1 1 0 0 1 -1 0 0 0 -1 -0 1 -3 -3 -1 -0
1 -4 -5 -1 1 1 -3 -1 0 0 -0 -0 0 0 -3 -2 0 -6 -1 2 -0 -0 -1 -4 -2 -0 -0 -0 -3 -0 -1 -3 -0 -1 -1 1 0 -1 0 -0 -0 1 1 -4
0 1 -6 -3 -2 3 -2 3 -2 4 0 0 -1 -3 -2 -2 -1 -1 -0 -2 -1 2 -4 -0 -1 -1 -0 -1 -2 -0 -1 -0 -0 -2 0 -1 -1 -8 -1 -1 -0 -5 -3 -17
0 4 -1 -4 3 2 -3 2 1 2 -4 -0 -3 0 -1 -1 -2 -4 -0 -0 -1 -2 -1 -2 -2 -1 0 1 -1 1 0 0 -0 -1 -2 -3 -9 -0 -1 -2 -4 0 1 -0
-2 -2 -1 -2 3 1 -0 4 1 1 -1 -2 0 1 -1 1 2 -0 -1 1 0 1 -1 -0 -1 -1 -2 -2 -1 1 1 1 0 0 -1 -11 -6 -0 -3 -6 -13 -3 -3 -1
1 3 2 0 -3 -1 -3 2 8 -0 -3 -10 3 -1 -1 -2 -0 -2 1 1 2 -1 0 -1 -1 -2 -4 -0 1 0 1 0 3 1 1 -3 -4 0 0 -1 -13 1 1 -1
4 4 4 4 6 -1 -1 -1 4 -0 1 -11 1 -4 -5 1 1 -2 1 -0 1 1 -0 -0 -1 -3 -2 -3 -1 0 1 1 -1 -1 0 -9 -3 -0 1 -13 -16 0 1 1
-0 -0 1 3 5 7 -1 -12 9 2 0 -11 1 2 -4 -1 1 -3 2 -5 -1 -1 -1 -2 -3 -0 -4 -2 -4 -4 -5 -4 -1 1 2 -11 -2 1 -7 -8 -1 -0 1 1
-1 6 2 8 6 14 4 -1 5 7 0 -1 2 3 3 -1 1 1 1 0 -2 -5 -3 -1 -1 -1 -1 -3 -3 -2 -6 -8 -9 -9 -15 -3 -2 -0 -0 -1 -2 -2 -0 -1
-4 23 -6 3 2 15 -1 0 4 7 5 -8 4 -5 -2 2 3 3 -2 1 1 0 0 -3 -1 -2 -3 -3 -6 -0 -2 0 -1 -3 -8 -4 1 -1 -2 -2 -1 -0 -2 -2
-1 -4 3 31 -2 18 24 -15 1 17 -4 1 -7 2 1 -3 0 2 3 1 -0 1 1 -1 -1 -2 -1 -3 -6 -3 -4 -2 -3 -6 -4 -2 -9 -2 3 0 3 1 2 -1
-3 -5 -6 -0 -7 15 39 8 -8 7 -19 -11 1 0 2 0 -0 1 2 3 1 -0 -1 -1 -2 -0 -1 -0 -3 -0 -4 -8 -4 -13 -5 -2 -2 1 -1 -2 -1 3 0 1
0 -1 0 -6 -9 0 102 13 13 18 -1 -5 -1 1 1 1 1 4 -0 2 2 1 -1 -1 1 -1 -1 1 -0 -10 -1 1 -1 -11 2 1 1 -3 -1 -3 -2 0 -2 0
-4 0 -1 0 3 10 11 10 10 -2 12 -10 3 1 1 4 3 0 3 4 0 -4 -4 0 -0 -0 1 1 -0 -8 -4 -0 5 3 4 -4 -3 -5 -2 -1 1 -0 -1 -2
2 -1 -3 -6 -1 1 14 10 12 20 21 -5 -0 2 -0 -2 0 0 1 0 0 3 -1 3 0 2 1 1 -9 -3 6 -1 -4 -0 1 1 -1 -3 -1 -0 0 -1 -0 1
11 0 -2 1 6 5 6 -12 1 -8 3 -1 -0 -5 -1 3 4 -1 2 0 -1 3 -0 -0 1 -0 -5 -13 -2 -1 -1 -1 0 -0 -0 -1 -1 -1 -0 0 0 0 0 -0
-5 -1 -3 -1 -1 7 18 19 0 -5 6 0 1 1 -0 -3 1 3 -3 1 -1 -0 -6 2 2 -6 -5 -8 5 0 0 0 0 -0 -2 -2 -2 -0 2 -0 2 1 1 1
0 -3 -1 -3 -1 5 2 -1 -0 0 -0 0 2 -3 -3 -2 -2 -1 -0 -1 -0 1 -6 -3 -1 -4 -3 2 1 1 0 1 -0 -0 1 2 1 -0 1 0 0 0 1 1
4 -3 -1 -1 -1 1 -5 -1 1 1 -3 1 -1 1 -1 1 2 -2 3 -1 1 -1 -2 -4 -1 -8 2 -0 1 0 -1 -1 -1 1 1 1 1 -0 -0 -1 -1 0 1 1
6 -4 -3 -1 -2 -0 1 -1 -2 -0 -1 -1 -0 1 -4 0 2 -0 -1 -0 -1 -2 0 -5 -7 -0 4 1 -1 1 -0 -2 1 -0 -0 -0 -0 0 -0 -1 -1 1 2 2
-5 -4 -0 -3 -1 -1 -2 -1 -2 1 1 2 -1 0 -1 -0 0 -0 -2 1 -1 2 1 -7 -2 1 1 4 -0 -1 -2 3 2 -0 -0 -1 -1 -1 -1 2 1 1 2 1
-4 -2 -4 -0 -4 -0 0 -1 -1 -0 3 -2 -2 -1 -3 0 -1 -1 -1 3 -1 -3 -6 -1 1 3 1 3 -1 3 1 -3 -0 2 1 0 0 1 0 -0 0 1 -0 -1
-4 3 -1 3 -2 0 0 -1 -1 -2 -1 -2 -1 -1 1 0 -2 -2 -3 -1 -4 -4 1 2 1 -1 3 1 2 2 1 2 -1 0 2 3 3 1 -0 1 3 2 0 -0
2 -1 3 -2 1 -6 -2 2 -0 2 -2 -1 -0 1 -8 -1 0 1 -1 -1 1 2 4 5 2 4 3 1 1 2 0 2 2 0 0 1 1 2 0 -1 -1 1 1 0
Height
1500 1498 1494 1491 1486 1481 1476 1470 1471 1467 1467 1468 1469 1474 1474 1474 1475 1475 1475 1474 1474 1476 1473 1476 1474 1468 1464 1459 1459 1462 1462 1460 1455 1452 1445 1444 1445 1447 1449 1461 1453 1461 1463 1451
1495 1493 1492 1489 1486 1480 1477 1471 1468 1466 1465 1470 1475 1474 1473 1475 1475 1474 1475 1475 1473 1472 1472 1473 1469 1466 1465 1464 1463 1462 1460 1455 1467 1463 1451 1445 1445 1445 1446 1451 1455 1458 1466 1450
1493 1491 1488 1486 1484 1481 1478 1473 1472 1465 1463 1467 1468 1469 1473 1474 1475 1475 1474 1473 1473 1473 1472 1469 1470 1466 1467 1466 1464 1464 1463 1459 1452 1450 1448 1441 1445 1443 1443 1448 1459 1457 1454 1443
1491 1488 1486 1483 1481 1479 1477 1474 1471 1471 1469 1468 1468 1471 1470 1472 1474 1475 1476 1474 1473 1474 1477 1468 1470 1465 1466 1468 1467 1465 1466 1464 1454 1445 1441 1438 1438 1437 1440 1443 1443 1448 1440 1441
1485 1484 1483 1480 1478 1476 1476 1475 1473 1472 1471 1471 1472 1468 1472 1469 1471 1472 1474 1475 1470 1472 1474 1470 1472 1469 1467 1469 1469 1468 1467 1467 1460 1453 1444 1442 1442 1439 1436 1434 1436 1436 1437 1436
1479 1480 1478 1477 1476 1474 1473 1472 1471 1469 1469 1471 1472 1467 1466 1466 1467 1470 1467 1469 1471 1471 1468 1467 1468 1468 1468 1468 1471 1471 1468 1464 1463 1457 1452 1450 1446 1435 1433 1430 1427 1426 1435 1422
1473 1474 1473 1473 1473 1472 1472 1471 1470 1468 1469 1468 1467 1464 1463 1463 1464 1466 1467 1469 1471 1468 1467 1468 1468 1468 1467 1467 1466 1467 1465 1462 1458 1454 1457 1457 1418 1420 1420 1420 1417 1421 1419 1420
1467 1467 1467 1467 1467 1468 1468 1467 1467 1466 1465 1462 1462 1462 1461 1461 1462 1464 1464 1466 1467 1467 1468 1469 1470 1468 1466 1462 1463 1466 1467 1464 1454 1447 1448 1437 1418 1420 1424 1424 1415 1413 1414 1413
1459 1459 1459 1459 1460 1461 1462 1463 1463 1462 1460 1459 1454 1456 1457 1459 1462 1463 1462 1463 1464 1467 1468 1469 1472 1458 1454 1463 1466 1464 1466 1467 1466 1450 1442 1440 1418 1420 1421 1419 1418 1410 1408 1407
1452 1452 1452 1453 1452 1452 1454 1456 1456 1457 1455 1452 1451 1451 1451 1451 1453 1458 1458 1460 1464 1464 1470 1473 1470 1460 1457 1458 1462 1464 1465 1468 1463 1455 1444 1443 1423 1422 1421 1434 1415 1411 1411 1409
1442 1442 1443 1444 1445 1444 1446 1447 1449 1450 1449 1447 1446 1445 1445 1445 1447 1452 1455 1459 1460 1465 1470 1468 1459 1461 1457 1460 1458 1454 1453 1458 1462 1460 1453 1448 1421 1424 1426 1419 1414 1412 1411 1411
1434 1433 1434 1434 1435 1436 1436 1438 1440 1443 1445 1442 1439 1439 1439 1439 1440 1442 1445 1444 1443 1446 1453 1455 1453 1456 1465 1462 1459 1449 1453 1438 1443 1438 1432 1418 1417 1415 1415 1415 1415 1414 1413 1412
1425 1424 1425 1425 1426 1426 1425 1428 1430 1433 1438 1436 1433 1432 1433 1433 1435 1436 1438 1439 1439 1441 1441 1441 1447 1454 1451 1459 1456 1447 1438 1436 1440 1431 1414 1412 1411 1412 1411 1412 1412 1412 1412 1413
1415 1415 1415 1414 1416 1416 1415 1415 1420 1423 1430 1432 1424 1423 1424 1425 1427 1430 1432 1433 1435 1437 1439 1439 1443 1445 1439 1447 1438 1439 1433 1434 1434 1429 1412 1411 1408 1408 1406 1406 1408 1408 1409 1410
1405 1404 1407 1407 1405 1406 1404 1402 1404 1408 1417 1421 1421 1420 1420 1421 1422 1424 1426 1430 1433 1435 1437 1439 1440 1436 1437 1439 1441 1439 1424 1419 1423 1410 1403 1404 1403 1403 1403 1403 1402 1404 1406 1407
1399 1397 1396 1395 1398 1398 1395 1387 1392 1396 1403 1411 1418 1416 1415 1416 1418 1420 1422 1426 1429 1432 1433 1434 1433 1432 1435 1435 1434 1409 1403 1404 1404 1401 1401 1401 1401 1401 1402 1402 1402 1401 1401 1403
1394 1392 1390 1388 1387 1390 1390 1386 1382 1385 1393 1401 1409 1410 1412 1415 1416 1418 1421 1423 1425 1428 1431 1431 1430 1430 1431 1429 1426 1396 1396 1397 1398 1399 1399 1397 1397 1397 1397 1397 1397 1397 1397 1398
1388 1387 1385 1383 1381 1379 1382 1378 1379 1385 1386 1390 1395 1405 1409 1412 1414 1417 1419 1422 1424 1425 1425 1425 1426 1428 1428 1418 1389 1385 1389 1392 1393 1393 1393 1392 1392 1393 1393 1393 1393 1393 1393 1393
1383 1382 1380 1378 1375 1375 1373 1378 1379 1387 1390 1384 1384 1394 1403 1409 1409 1412 1416 1419 1424 1422 1422 1421 1422 1419 1412 1379 1379 1380 1384 1386 1386 1387 1388 1389 1387 1387 1387 1387 1388 1388 1388 1389
1378 1380 1379 1376 1376 1376 1378 1383 1385 1388 1383 1383 1384 1388 1397 1403 1405 1408 1413 1414 1415 1418 1415 1416 1415 1397 1381 1379 1377 1380 1381 1381 1382 1382 1383 1384 1383 1381 1381 1382 1384 1385 1386 1386
1375 1377 1377 1378 1378 1378 1378 1380 1382 1382 1381 1380 1383 1385 1394 1399 1400 1402 1404 1407 1409 1415 1412 1413 1409 1392 1375 1374 1374 1375 1376 1376 1376 1376 1378 1379 1380 1379 1378 1379 1380 1382 1383 1384
1372 1375 1377 1379 1380 1379 1380 1381 1379 1379 1379 1380 1381 1382 1387 1392 1395 1396 1402 1403 1405 1403 1406 1417 1407 1377 1371 1373 1374 1374 1374 1374 1374 1374 1375 1376 1378 1378 1378 1379 1380 1380 1381 1382
1370 1374 1376 1378 1379 1380 1377 1381 1381 1381 1374 1375 1377 1382 1384 1389 1391 1394 1397 1400 1403 1404 1407 1402 1382 1375 1373 1370 1373 1374 1374 1374 1374 1373 1374 1375 1375 1376 1377 1378 1378 1378 1379 1380
1367 1370 1377 1377 1378 1375 1370 1370 1370 1369 1368 1371 1374 1380 1382 1386 1387 1390 1394 1398 1401 1401 1408 1389 1377 1374 1374 1372 1373 1374 1376 1376 1375 1374 1375 1375 1376 1377 1378 1379 1379 1379 1379 1379
1361 1365 1370 1371 1367 1368 1368 1368 1369 1370 1371 1373 1376 1380 1382 1384 1387 1388 1394 1399 1397 1393 1384 1376 1376 1377 1377 1374 1377 1376 1376 1378 1380 1379 1379 1379 1379 1380 1380 1380 1379 1379 1380 1381
1357 1358 1361 1362 1365 1367 1367 1367 1369 1371 1373 1375 1377 1380 1381 1381 1382 1391 1391 1390 1389 1380 1379 1379 1379 1381 1382 1379 1381 1380 1380 1380 1382 1383 1383 1383 1382 1381 1381 1381 1381 1380 1380 1381
1353 1353 1354 1355 1356 1359 1361 1362 1364 1367 1372 1374 1375 1377 1376 1378 1383 1384 1381 1382 1383 1382 1383 1382 1383 1384 1383 1383 1384 1383 1383 1383 1383 1383 1384 1383 1383 1382 1382 1381 1381 1381 1381 1380